Regional Weather Roundup
Issued by NWS

Home | Current Version | Previous Version | Text Only | Print | Product List | Glossary Off
Versions: 1 2 3 4 5 6 7 8 9 10 11 12 13 14 15 16 17 18 19 20 21 22 23 24 25 26 27 28 29 30 31 32 33 34 35 36 37 38 39 40 41 42 43 44 45 46 47 48

000
ASUS45 KSLC 090110
RWRUT

UTAH REGIONAL WEATHER ROUNDUP
NATIONAL WEATHER SERVICE SALT LAKE CITY UT
700 PM MDT TUE JUL 08 2014

UTZ001>011-023>025-090200-

NORTHERN UTAH

CITY           SKY/WX    TMP DP  RH WIND       PRES   REMARKS
HILL AFB         N/A     93  38  14 N2        30.02F
LOGAN          SUNNY     94  39  14 SW6       29.99S HX  90
OGDEN            N/A     95  37  13 CALM      29.98F HX  90
PROVO AIRPORT  NOT AVBL
SALT LAKE CITY   N/A     97  32  10 N12       29.95F HX  91
VERNAL         PTSUNNY   92  31  11 NW9       30.03F
WENDOVER         N/A     99  34  10 SE12      29.96S HX  93
HEBER CITY       N/A     91  36  14 N9        30.07F

$$

UTZ012>022-026-027-090200-

SOUTHERN UTAH

CITY           SKY/WX    TMP DP  RH WIND       PRES   REMARKS
BRYCE CANYON     N/A     74  43  32 N16       30.30S
CEDAR CITY       N/A     86  44  23 N13G22    30.10S
MILFORD          N/A     89  42  19 E15       30.05F
MOAB/CYNLANDS  SUNNY     93  39  15 SW17G30   29.97R
PRICE            N/A     89  35  14 SW8       30.10S
ST GEORGE        N/A     99  48  18 W10       29.91S HX  95

$$

REGIONAL REPORTS     COLORADO/ARIZONA

CITY           SKY/WX    TMP DP  RH WIND       PRES   REMARKS
CRAIG, CO      MOSUNNY   84  35  17 N6        30.11F
GRAND JUNCTION PTSUNNY   90  34  13 NE32G40   30.00F
RIFLE          PTSUNNY   91  32  12 W20       30.05R
MONTROSE       PTSUNNY   86  41  20 W8        30.12R
CORTEZ         MOSUNNY   79  53  40 E7        30.15R
PAGE, AZ         N/A     92  44  19 S12G29    29.98R
GRAND CANYON   LGT RAIN  61  53  75 SW7       30.31F
KINGMAN        TSTM      75  62  64 NE16G33   30.03R
FLAGSTAFF        N/A     68  47  46 N8        30.32S

$$

REGIONAL REPORTS    NEVADA/IDAHO/WYOMING

CITY           SKY/WX    TMP DP  RH WIND       PRES   REMARKS
LAS VEGAS, NV  PTSUNNY   87  54  32 S12       29.83F
ELY              N/A     83  42  23 W6        30.15F
ELKO           PTSUNNY   87  41  19 SW18      30.05R
POCATELLO, ID  SUNNY     92  39  15 SW14      29.99F
BURLEY           N/A     82  52  35 SW10      29.97F
EVANSTON, WY   MOSUNNY   85  38  18 NW12G20   30.22S
ROCK SPRINGS   MOSUNNY   85  26  11 NW6       30.16F

$$


USA.gov is the U.S. government's official web portal to all federal, state and local government web resources and services.